[[{"header":{"parameterUnit":"m.s-1","parameterCategory":1,"la1":30.2991,"la2":30.254,"lo1":-89.0895,"lo2":-89.0444,"dy":0.0017,"dx":0.0017,"nx":28,"ny":28,"refTime":"2025-03-14T03:00:00:Z","depth":0,"parameterNumber":2,"parameterNumberName":"U-component_of_WINDS"},"data":[0,0,0,0,0,0,0,0,0,0,0,0,0,0,0,0,0,0,0,0,0,0,0,0,0,0,0,0,0,0,0,0,0,0,0,0,0,0,0,0,0,0,0,0,0,0,0,0,0,0,0,0,0,0,0,0,0,0,-2.6372,-2.6374,0,-2.6519,-2.652,-2.6522,-2.6593,-2.6593,-2.6593,-2.6593,-2.6743,-2.6747,-2.6751,0,0,0,0,0,0,0,0,0,0,0,0,0,-2.6154,-2.6158,-2.6372,-2.6374,-2.6375,-2.6518,-2.652,-2.6522,-2.6593,-2.6593,-2.6593,-2.6593,-2.6742,-2.6747,-2.6752,0,0,0,0,0,0,0,0,0,0,0,0,0,-2.6269,-2.6159,-2.6371,-2.6428,-2.6434,-2.6518,-2.652,-2.6523,-2.6593,-2.6593,-2.6593,-2.6593,-2.674,-2.6746,-2.6752,-2.6791,0,0,-2.6771,-2.6773,0,0,0,0,0,0,0,0,-2.6263,-2.6277,-2.6418,-2.6424,-2.6432,-2.6537,-2.6499,-2.6613,-2.6593,-2.6533,-2.6593,-2.6593,-2.6675,-2.6686,-2.6714,-2.6798,-2.6804,-2.6771,-2.6775,-2.6778,-2.6779,0,0,0,0,0,0,0,-2.6255,-2.6271,-2.643,-2.642,-2.6428,-2.6446,-2.6463,-2.6521,-2.6602,-2.6538,-2.6543,-2.656,-2.6679,-2.6708,-2.6718,-2.6807,-2.6771,-2.6777,-2.678,-2.6783,-2.6931,-2.6931,0,0,0,0,0,0,-2.6237,-2.6264,-2.6425,-2.6434,-2.6345,-2.645,-2.6469,-2.6503,-2.6602,-2.6617,-2.656,-2.6563,-2.6698,-2.6711,-2.6724,-2.6776,-2.6778,-2.6783,-2.6787,-2.6931,-2.6931,-2.6931,0,0,0,0,0,0,-2.6232,-2.6251,-2.6419,-2.6351,-2.6374,-2.6454,-2.6493,-2.6506,-2.6536,-2.6618,-2.6633,-2.6575,-2.6698,-2.6715,-2.6774,-2.6782,-2.6786,-2.6791,-2.693,-2.6931,-2.6931,-2.6881,0,0,0,0,0,0,-2.6226,-2.6249,-2.6264,-2.6351,-2.6377,-2.6467,-2.6493,-2.6509,-2.6546,-2.6551,-2.6636,-2.665,-2.6699,-2.6764,-2.678,-2.6791,-2.6796,-2.693,-2.6931,-2.6931,-2.6882,-2.6879,-2.6877,0,0,0,0,0,-2.6218,-2.6244,-2.6264,-2.6283,-2.6398,-2.6467,-2.6482,-2.6538,-2.6546,-2.6563,-2.6616,-2.6648,-2.6779,-2.677,-2.6788,-2.6801,-2.693,-2.693,-2.6931,-2.6883,-2.688,-2.6877,0,0,0,0,0,0,-2.6156,-2.6256,-2.628,-2.6335,-2.6392,-2.6479,-2.6501,-2.6533,-2.6588,-2.6591,-2.6658,-2.6677,-2.673,-2.6771,-2.6759,-2.6844,-2.6857,-2.6862,-2.6815,-2.6812,-2.681,-2.6799,-2.6801,0,0,0,0,0,-2.6148,-2.6196,-2.6281,-2.6321,-2.6349,-2.642,-2.6452,-2.649,-2.6552,-2.6576,-2.6634,-2.6693,-2.6748,-2.6782,-2.6837,-2.6888,-2.6909,-2.6906,-2.6904,-2.6901,-2.6904,-2.6936,-2.6936,-2.6934,-2.6934,-2.6934,0,0,-2.6134,-2.6194,-2.622,-2.631,-2.6359,-2.6407,-2.6439,-2.6489,-2.6526,-2.6584,-2.6643,-2.6688,-2.6758,-2.6813,-2.6841,-2.685,-2.691,-2.6902,-2.69,-2.6904,-2.6936,-2.6937,-2.6937,-2.6934,-2.6934,-2.6934,0,0,-2.6132,-2.6182,-2.6222,-2.627,-2.6343,-2.6391,-2.64,-2.6483,-2.6514,-2.6575,-2.662,-2.6665,-2.6757,-2.6806,-2.6843,-2.686,-2.6892,-2.6876,-2.6864,-2.6893,-2.6894,-2.6894,-2.6901,-2.6903,-2.6879,-2.6879,-2.6879,0,-2.6104,-2.6179,-2.6238,-2.6285,-2.6324,-2.6379,-2.642,-2.6464,-2.6551,-2.6577,-2.6586,-2.6704,-2.6755,-2.6823,-2.6828,-2.6855,-2.6869,-2.6867,-2.6889,-2.689,-2.6891,-2.6899,-2.6901,-2.6877,-2.6877,-2.6877,-2.6877,0,-2.6142,-2.6193,-2.6216,-2.6299,-2.634,-2.6384,-2.645,-2.6485,-2.652,-2.6566,-2.6628,-2.6691,-2.676,-2.6779,-2.6813,-2.6853,-2.6856,-2.6876,-2.6891,-2.6888,-2.6896,-2.69,-2.6873,-2.6874,-2.6875,-2.6875,0,0,-2.6104,-2.622,-2.6228,-2.6267,-2.6352,-2.6393,-2.644,-2.6508,-2.6536,-2.6595,-2.6637,-2.6714,-2.6733,-2.6775,-2.6816,-2.6841,-2.6852,-2.6859,-2.6861,-2.6856,-2.6901,-2.6885,-2.6888,-2.6874,-2.6875,-2.6875,-2.6895,0,-2.6115,-2.6201,-2.6256,-2.632,-2.6368,-2.6422,-2.6463,-2.652,-2.6565,-2.6613,-2.6662,-2.6716,-2.6737,-2.6763,-2.6791,-2.6845,-2.6862,-2.6844,-2.6914,-2.6915,-2.6895,-2.6892,-2.6876,-2.6891,-2.6898,-2.6899,-2.6899,0,-2.6138,-2.6196,-2.6265,-2.6346,-2.6368,-2.6404,-2.6471,-2.6516,-2.6582,-2.6613,-2.666,-2.6701,-2.6754,-2.6764,-2.6837,-2.6824,-2.6856,-2.6886,-2.6889,-2.6897,-2.6907,-2.6901,-2.6897,-2.69,-2.6905,-2.6905,-2.6904,0,-2.6105,-2.62,-2.6254,-2.6285,-2.6381,-2.6405,-2.6446,-2.6512,-2.655,-2.6609,-2.6634,-2.6698,-2.6733,-2.6782,-2.6839,-2.6841,-2.6907,-2.6922,-2.6935,-2.6934,-2.6947,-2.6945,-2.6948,-2.6966,-2.6966,-2.6966,-2.6966,0,-2.6111,-2.6151,-2.624,-2.6273,-2.632,-2.6383,-2.6428,-2.6474,-2.6532,-2.6576,-2.6626,-2.6666,-2.6739,-2.6788,-2.6834,-2.6888,-2.6903,-2.693,-2.6942,-2.6926,-2.6923,-2.6948,-2.6949,-2.6967,-2.6966,-2.6966,-2.6966,0,-2.6082,-2.6143,-2.6205,-2.6291,-2.6313,-2.6344,-2.6418,-2.6453,-2.65,-2.6555,-2.6571,-2.6646,-2.6707,-2.6769,-2.6851,-2.6881,-2.6934,-2.695,-2.6912,-2.6919,-2.6928,-2.6926,-2.6948,-2.6954,-2.6967,-2.6966,-2.6966,0,-2.6082,-2.6114,-2.6203,-2.6236,-2.6276,-2.6328,-2.6367,-2.643,-2.6468,-2.6547,-2.6572,-2.6636,-2.6691,-2.6785,-2.6848,-2.6911,-2.6929,-2.6932,-2.6939,-2.6922,-2.693,-2.6927,-2.6931,-2.6929,-2.6929,-2.6929,-2.6928,0,-2.6076,-2.6104,-2.6158,-2.6223,-2.6267,-2.6321,-2.6377,-2.6401,-2.6476,-2.6516,-2.6579,-2.6621,-2.6705,-2.6768,-2.6839,-2.6882,-2.6918,-2.6926,-2.6932,-2.6916,-2.6893,-2.6907,-2.6906,-2.6925,-2.6925,-2.6926,-2.6926,-2.6926,-2.6062,-2.6093,-2.6161,-2.622,-2.6268,-2.632,-2.6356,-2.6409,-2.6462,-2.6535,-2.657,-2.6632,-2.6699,-2.6798,-2.684,-2.6891,-2.6901,-2.691,-2.6912,-2.6914,-2.691,-2.6885,-2.6904,-2.6904,-2.6904,-2.6904,-2.6905,0,-2.6059,-2.6105,-2.6158,-2.6235,-2.6281,-2.6311,-2.6374,-2.6411,-2.6465,-2.6525,-2.6578,-2.665,-2.6712,-2.6779,-2.6845,-2.6873,-2.6891,-2.6888,-2.6887,-2.6897,-2.6897,-2.6885,-2.6873,-2.6873,-2.6873,-2.6873,-2.6873,-2.6873,-2.6063,-2.6118,-2.6155,-2.6235,-2.6282,-2.6343,-2.6377,-2.6425,-2.6473,-2.6551,-2.6603,-2.6646,-2.6709,-2.678,-2.6839,-2.6857,-2.688,-2.6872,-2.6895,-2.6894,-2.6897,-2.6899,-2.6888,-2.6876,-2.6876,-2.6891,-2.6891,-2.6891]},{"header":{"parameterUnit":"m.s-1","parameterCategory":1,"la1":30.2991,"la2":30.254,"lo1":-89.0895,"lo2":-89.0444,"dy":0.0017,"dx":0.0017,"nx":28,"ny":28,"refTime":"2025-03-14T03:00:00:Z","depth":0,"parameterNumber":3,"parameterNumberName":"V-component_of_WINDS"},"data":[0,0,0,0,0,0,0,0,0,0,0,0,0,0,0,0,0,0,0,0,0,0,0,0,0,0,0,0,0,0,0,0,0,0,0,0,0,0,0,0,0,0,0,0,0,0,0,0,0,0,0,0,0,0,0,0,0,0,9.1696,9.1697,0,9.1824,9.1825,9.1827,9.1791,9.1789,9.1786,9.1784,9.1906,9.1912,9.1918,0,0,0,0,0,0,0,0,0,0,0,0,0,9.1415,9.1421,9.1696,9.1697,9.1699,9.1824,9.1825,9.1827,9.1792,9.1788,9.1785,9.1782,9.1905,9.1911,9.1918,0,0,0,0,0,0,0,0,0,0,0,0,0,9.1539,9.1423,9.1696,9.1697,9.1698,9.1823,9.1825,9.1828,9.1792,9.1788,9.1785,9.1781,9.1902,9.1911,9.1919,9.2049,0,0,9.1945,9.1949,0,0,0,0,0,0,0,0,9.1532,9.155,9.1695,9.1697,9.1699,9.1788,9.1772,9.1901,9.1793,9.1756,9.1783,9.1779,9.187,9.1881,9.1913,9.2054,9.206,9.1946,9.1951,9.1955,9.1957,0,0,0,0,0,0,0,9.1524,9.1544,9.1746,9.1697,9.1699,9.1689,9.1702,9.1796,9.1833,9.1759,9.1757,9.1773,9.187,9.1905,9.1915,9.2062,9.1946,9.1953,9.1958,9.1962,9.232,9.2324,0,0,0,0,0,0,9.1515,9.1537,9.1742,9.175,9.1605,9.1697,9.1712,9.1763,9.1832,9.1839,9.1776,9.1771,9.1892,9.1905,9.1919,9.2079,9.1955,9.1962,9.1967,9.2316,9.2321,9.2326,0,0,0,0,0,0,9.1509,9.1534,9.1737,9.1643,9.1668,9.1706,9.1763,9.1767,9.1802,9.1845,9.185,9.1806,9.1889,9.1908,9.2018,9.2083,9.1966,9.1974,9.231,9.2317,9.2323,9.2398,0,0,0,0,0,0,9.1501,9.1532,9.1582,9.1645,9.1674,9.1836,9.1767,9.1773,9.1818,9.1812,9.1874,9.188,9.1888,9.2006,9.2027,9.2092,9.1981,9.2305,9.2314,9.2321,9.239,9.2406,9.242,0,0,0,0,0,9.1491,9.1595,9.1585,9.161,9.1738,9.1839,9.1856,9.1865,9.1823,9.1874,9.1902,9.1878,9.2072,9.2018,9.2041,9.211,9.2301,9.2311,9.2321,9.2383,9.2403,9.242,0,0,0,0,0,0,9.1536,9.1603,9.1593,9.1721,9.1775,9.1833,9.1898,9.1885,9.195,9.1942,9.1948,9.1962,9.2077,9.2103,9.2042,9.2241,9.218,9.2195,9.2219,9.2239,9.2254,9.2245,9.1988,0,0,0,0,0,9.1561,9.164,9.1693,9.1801,9.1829,9.1859,9.1903,9.1907,9.1962,9.1984,9.2019,9.2072,9.2145,9.2193,9.2262,9.2393,9.2407,9.2452,9.2467,9.2479,9.2493,9.2568,9.2589,9.2358,9.2358,9.2358,0,0,9.1612,9.1659,9.1708,9.1811,9.1854,9.1935,9.1878,9.1965,9.2025,9.1996,9.2105,9.2133,9.2192,9.2315,9.237,9.2341,9.256,9.2492,9.2502,9.2509,9.258,9.2602,9.2621,9.2365,9.2364,9.2363,0,0,9.1749,9.1792,9.1888,9.1934,9.2,9.202,9.2043,9.2105,9.2124,9.2233,9.2215,9.2284,9.2409,9.2454,9.2493,9.2651,9.2632,9.2672,9.2752,9.2825,9.2843,9.286,9.2919,9.294,9.2685,9.2686,9.2686,0,9.1804,9.1928,9.1938,9.2029,9.2076,9.2057,9.2155,9.2197,9.2282,9.2314,9.228,9.2441,9.2478,9.2613,9.2652,9.2683,9.2711,9.2666,9.284,9.2857,9.2872,9.2928,9.295,9.269,9.269,9.2689,9.2689,0,9.1994,9.208,9.2149,9.2237,9.2291,9.2384,9.2408,9.2462,9.2461,9.2484,9.2597,9.2643,9.2723,9.2754,9.2752,9.289,9.287,9.2838,9.2778,9.2899,9.2952,9.2973,9.2697,9.2695,9.2694,9.2693,0,0,9.2161,9.2257,9.2282,9.2324,9.2397,9.2463,9.2556,9.2638,9.2685,9.2744,9.2823,9.2931,9.2904,9.2948,9.295,9.3014,9.314,9.2975,9.2976,9.3007,9.3298,9.3324,9.3349,9.3128,9.3132,9.3135,9.3295,0,9.2306,9.2474,9.2488,9.2638,9.2719,9.2704,9.2785,9.2838,9.2863,9.2933,9.2958,9.3037,9.2993,9.3021,9.3083,9.3112,9.3199,9.31,9.3201,9.3205,9.319,9.3376,9.3403,9.3551,9.3315,9.3319,9.3321,0,9.2498,9.2569,9.2728,9.2795,9.2829,9.2902,9.2981,9.3049,9.3109,9.3123,9.3175,9.317,9.3265,9.32,9.3332,9.3264,9.3306,9.3327,9.3333,9.3344,9.3272,9.3395,9.3598,9.3621,9.3353,9.3351,9.3349,0,9.2608,9.2742,9.2856,9.2891,9.2971,9.3024,9.3058,9.3116,9.3166,9.3233,9.3266,9.3342,9.3384,9.3443,9.3458,9.3409,9.3591,9.3527,9.3605,9.3605,9.3645,9.3643,9.3861,9.3668,9.3668,9.3668,9.3667,0,9.2771,9.2869,9.2908,9.2978,9.3089,9.3103,9.3212,9.3243,9.3295,9.3371,9.336,9.3431,9.3446,9.352,9.3532,9.3641,9.3659,9.3673,9.3675,9.3676,9.3675,9.3705,9.3696,9.3674,9.3672,9.3671,9.367,0,9.2912,9.2942,9.3066,9.3133,9.3152,9.3231,9.3288,9.3355,9.3379,9.3476,9.3499,9.3536,9.3622,9.3644,9.3745,9.3754,9.3884,9.3875,9.3865,9.3865,9.3944,9.3938,9.4191,9.4226,9.4008,9.401,9.4012,0,9.3015,9.3092,9.3169,9.3222,9.326,9.3343,9.3395,9.3413,9.3467,9.3545,9.3603,9.3689,9.3759,9.3898,9.3933,9.4011,9.4006,9.4089,9.4017,9.4017,9.4011,9.4008,9.4017,9.4103,9.4106,9.4108,9.4109,0,9.3196,9.3209,9.3286,9.3371,9.3435,9.35,9.3563,9.3605,9.3631,9.3693,9.3784,9.3839,9.3946,9.4032,9.4112,9.4146,9.4133,9.4132,9.4155,9.4157,9.4149,9.4158,9.3905,9.4126,9.4124,9.4123,9.4122,9.4121,9.3324,9.3393,9.346,9.3548,9.3598,9.3659,9.3727,9.3762,9.3839,9.393,9.3934,9.4034,9.4094,9.4201,9.424,9.4317,9.4292,9.4324,9.4333,9.4341,9.435,9.4136,9.4331,9.4331,9.433,9.433,9.433,0,9.3507,9.3551,9.3632,9.3723,9.3793,9.3777,9.3847,9.3905,9.3994,9.4054,9.4125,9.423,9.4315,9.4358,9.4441,9.4495,9.4491,9.4516,9.4514,9.4523,9.4366,9.434,9.4518,9.4518,9.4518,9.4518,9.4518,9.4518,9.3611,9.3729,9.375,9.3892,9.3934,9.4035,9.4076,9.4132,9.418,9.43,9.4372,9.4401,9.4454,9.4542,9.4619,9.4629,9.4662,9.4691,9.4698,9.4552,9.4533,9.4515,9.449,9.4697,9.4697,9.4849,9.485,9.4851]}]]